This demonstration page uses our WeatherBlox Daily Observations layout. Learn more.

Left ArrowRight Arrow

41.86663, -103.66717

Hourly Observations for March 23, 2020

Temp ( °F °C ) Dew Point ( °F °C ) Humidity (%) Winds ( mph kmh ) Pressure ( in mb ) Visibility ( mi km ) Precip ( " mm )
12:53 am 00:53 Clear 31 -0.6 28 -2.2 89 89 NNE 6 9 30.03 1017 10 16 N/A
1:53 am 01:53 Clear 30 -1.1 29 -1.7 96 96 NE 6 9 30.03 1017 10 16 N/A
2:53 am 02:53 Clear 28 -2.2 27 -2.8 96 96 N N/A 30.03 1017 10 16 N/A
3:53 am 03:53 Clear 26 -3.3 25 -3.9 96 96 N N/A 30.03 1017 10 16 N/A
4:53 am 04:53 Clear 24 -4.4 22 -5.6 91 91 N 3 6 30.03 1017 10 16 N/A
5:53 am 05:53 Clear 23 -5 21 -6.1 92 92 E 3 6 30.04 1017 10 16 N/A
6:05 am 06:05 Mostly Clear 23 -5 21 -6.1 92 92 N N/A 30.20 1023 10 16 N/A
6:38 am 06:38 Mostly Cloudy 27 -2.8 26 -3.3 96 96 N N/A 30.17 1022 9 14 N/A
6:50 am 06:50 Cloudy with Mist and Fog 28 -2 27 -3 93 93 ENE 3 6 30.15 1021 2 3 N/A
6:51 am 06:51 Cloudy with Mist and Fog 28 -2 27 -3 93 93 E 3 6 30.15 1021 2 2 N/A
6:53 am 06:53 Mostly Cloudy with Freezing Fog 28 -2.2 26 -3.3 92 92 E 5 7 30.04 1017 1 1 N/A
7:01 am 07:01 Mostly Cloudy with Freezing Fog 29 -1.7 28 -2.2 96 96 SE 3 6 30.15 1021 0 0 N/A
7:18 am 07:18 Mostly Cloudy with Freezing Fog 29 -1.7 29 -1.7 100 100 ESE 3 6 30.15 1021 N/A N/A
7:53 am 07:53 Mostly Cloudy with Freezing Fog 28 -2.2 27 -2.8 96 96 ENE 5 7 30.06 1018 N/A N/A
8:20 am 08:20 Mostly Cloudy with Freezing Fog 28 -2.2 28 -2.2 100 100 SE 5 7 30.17 1022 0 0 N/A
8:43 am 08:43 Mostly Cloudy with Freezing Fog 29 -1.7 29 -1.7 100 100 E 3 6 30.15 1021 N/A N/A
8:53 am 08:53 Mostly Cloudy with Freezing Fog 30 -1.1 29 -1.7 96 96 ENE 5 7 30.06 1018 0 0 N/A
9:34 am 09:34 Cloudy with Fog 33 0.6 33 0.6 100 100 VRB 5 7 30.09 1019 1 1 N/A
9:50 am 09:50 Cloudy with Mist and Fog 34 1 34 1 100 100 SE 3 6 30.10 1019 1 2 N/A
9:53 am 09:53 Cloudy with Mist and Fog 33 0.6 33 0.6 100 100 N N/A 30.04 1017 1 2 N/A
10:02 am 10:02 Cloudy with Mist and Fog 34 1 34 1 100 100 N N/A 30.10 1019 2 2 N/A
10:09 am 10:09 Cloudy with Mist and Fog 34 1.1 34 1.1 100 100 E 5 7 30.09 1019 3 5 N/A
10:29 am 10:29 Partly Cloudy 39 3.9 35 1.7 86 86 VRB 5 7 30.04 1017 10 16 N/A
10:53 am 10:53 Sunny 44 6.7 35 1.7 71 71 SE 8 13 30.00 1016 10 16 N/A
11:53 am 11:53 Sunny 53 11.7 34 1.1 48 48 VRB 3 6 29.93 1014 10 16 N/A
12:53 pm 12:53 Cloudy 58 14.4 30 -1.1 35 35 N N/A 29.88 1012 10 16 N/A
1:53 pm 13:53 Mostly Cloudy 60 15.6 25 -3.9 26 26 W 12 19 29.85 1011 10 16 N/A
2:53 pm 14:53 Partly Cloudy 61 16.1 21 -6.1 21 21 VRB 7 11 29.80 1009 10 16 N/A
3:53 pm 15:53 Mostly Sunny 61 16.1 24 -4.4 24 24 WSW 10 17 29.79 1009 10 16 N/A
4:53 pm 16:53 Mostly Cloudy 59 15 26 -3.3 28 28 SW 14 22 29.80 1009 10 16 N/A
5:53 pm 17:53 Cloudy 56 13.3 29 -1.7 36 36 W 12 19 29.84 1010 10 16 N/A
6:29 pm 18:29 Mostly Cloudy 54 12 30 -1 41 41 NNW 13 20 29.75 1007 10 16 N/A
6:53 pm 18:53 Mostly Cloudy 52 11.1 32 undefined 47 47 NNW 6 9 29.83 1010 10 16 N/A
7:53 pm 19:53 Clear 47 8.3 31 -0.6 54 54 N N/A 29.85 1011 10 16 N/A
8:53 pm 20:53 Clear 42 5.6 31 -0.6 65 65 SE 3 6 29.87 1012 10 16 N/A
9:53 pm 21:53 Clear 37 2.8 30 -1.1 76 76 SE 5 7 29.88 1012 10 16 N/A
10:53 pm 22:53 Clear 37 2.8 29 -1.7 73 73 N N/A 29.85 1011 10 16 N/A
11:53 pm 23:53 Clear 36 2.2 29 -1.7 76 76 NNW 8 13 29.83 1010 10 16 N/A

Powered by AerisWeather